PBO Station Position Time Series. Reference Frame : NAM14
Format Version,1.1.0
4-character ID,P655
Station name,EveritHillCN2006
Begin Date, 2006-09-28
End Date, 2019-10-07
Release Date, 2019-10-08
Reference position, 41.2944858512 North Latitude, -122.2063225734 East Longitude, 1542.53033 meters elevation,
Date, North (mm), East (mm), Vertical (mm), North Std. Deviation (mm), East Std. Deviation (mm),              Vertical Std. Deviation (mm), Quality,
2006-09-28,0.00, 0.00, 0.00, 2.14, 1.63, 7.35, repro,
2006-09-29,1.74, -0.47, -2.26, 2.17, 1.67, 7.51, repro,
2006-09-30,-0.08, -0.59, 4.78, 2.10, 1.64, 7.47, repro,
2006-10-01,0.30, -1.09, -3.94, 2.07, 1.61, 7.29, repro,
2006-10-02,0.66, -0.87, -6.64, 2.16, 1.68, 7.54, repro,
2006-10-03,0.62, -0.11, -11.43, 2.19, 1.73, 7.76, repro,
2006-10-04,0.10, -0.21, -2.86, 2.08, 1.60, 7.29, repro,
2006-10-05,0.61, -0.68, -4.28, 2.07, 1.59, 7.25, repro,
2006-10-06,0.74, -0.18, -12.06, 2.07, 1.60, 7.26, repro,
2006-10-07,0.22, -0.74, -0.90, 2.14, 1.66, 7.54, repro,
2006-10-08,-0.12, 0.07, -2.07, 2.12, 1.65, 7.43, repro,
2006-10-09,0.88, 0.75, -8.00, 2.14, 1.66, 7.49, repro,
2006-10-10,2.77, 0.13, -11.68, 2.11, 1.63, 7.47, repro,
2006-10-11,1.50, -0.61, -10.53, 2.09, 1.63, 7.43, repro,
2006-10-12,0.98, -0.59, -2.92, 2.09, 1.61, 7.35, repro,
2006-10-13,0.25, -0.12, -0.43, 2.05, 1.59, 7.24, repro,
2006-10-14,0.58, 0.76, -4.06, 2.11, 1.65, 7.50, repro,
2006-10-15,0.07, -0.84, 3.73, 2.07, 1.63, 7.37, repro,
2006-10-16,-0.60, 0.54, 8.60, 2.09, 1.61, 7.31, repro,
2006-10-17,0.85, -1.05, -3.37, 2.11, 1.66, 7.69, repro,
2006-10-18,-0.06, 0.43, 1.57, 2.06, 1.60, 7.32, repro,
2006-10-19,0.51, 0.87, -3.40, 2.29, 1.69, 8.00, repro,
2006-10-20,0.51, 0.84, -5.42, 2.37, 1.85, 8.80, repro,
2006-10-21,-0.28, 1.31, -4.88, 2.23, 1.71, 7.92, repro,
2006-10-22,-0.03, 0.51, -6.96, 2.09, 1.66, 7.55, repro,
2006-10-23,0.80, 1.47, -4.63, 2.07, 1.64, 7.49, repro,
2006-10-24,-0.36, 1.24, -0.43, 2.27, 1.69, 7.96, repro,
2006-10-25,0.14, -0.60, -3.79, 2.16, 1.70, 7.71, repro,
2006-10-26,1.84, 0.46, -5.12, 2.15, 1.72, 7.81, repro,
2006-10-27,1.36, 0.42, -11.08, 2.10, 1.69, 7.59, repro,
2006-10-28,0.21, 0.63, -8.69, 2.18, 1.67, 7.79, repro,
2006-10-29,0.73, 0.14, -2.84, 2.11, 1.66, 7.61, repro,
2006-10-30,0.12, 0.93, -4.65, 2.03, 1.59, 7.29, repro,
2006-10-31,-0.28, 0.05, -4.63, 2.06, 1.61, 7.37, repro,
2006-11-01,1.61, 1.43, -3.12, 2.22, 1.73, 8.03, repro,
2006-11-02,-0.69, 0.84, -11.77, 2.04, 1.62, 7.37, repro,
2006-11-03,0.80, 1.12, -7.00, 2.09, 1.66, 7.58, repro,
2006-11-04,-0.94, 1.17, -17.96, 2.17, 1.67, 7.67, repro,
2006-11-05,0.48, 2.27, -19.80, 2.13, 1.66, 7.54, repro,
2006-11-06,-1.15, -0.80, -8.17, 2.07, 1.62, 7.39, repro,
2006-11-07,-0.07, 3.78, -20.59, 2.23, 1.73, 7.86, repro,
2006-11-08,1.53, 0.86, -3.42, 2.15, 1.67, 7.66, repro,
2006-11-09,0.07, 1.10, 5.31, 2.22, 1.74, 7.90, repro,
2006-11-10,0.99, 0.74, -4.14, 2.11, 1.61, 7.37, repro,
2006-11-11,3.06, 0.99, -5.47, 2.16, 1.66, 7.55, repro,
2006-11-12,-0.65, -0.23, -1.92, 2.22, 1.72, 7.72, repro,
2006-11-13,-3.19, 3.33, 4.64, 2.16, 1.67, 7.52, repro,
2006-11-14,-0.51, -0.15, -3.39, 2.06, 1.60, 7.34, repro,
2006-11-15,0.18, 0.54, -7.33, 2.09, 1.65, 7.43, repro,
2006-11-16,-0.47, 1.02, -1.33, 2.02, 1.57, 7.11, repro,
2006-11-17,0.04, 1.33, -12.37, 2.01, 1.58, 7.13, repro,
2006-11-18,1.10, 1.19, -23.35, 2.04, 1.59, 7.20, repro,
2006-11-19,0.64, 1.05, -6.89, 2.03, 1.59, 7.20, repro,
2006-11-20,0.98, 3.03, -6.92, 2.03, 1.60, 7.20, repro,
2006-11-21,-3.09, 2.57, -8.60, 2.01, 1.58, 7.10, repro,
2006-11-22,-0.06, 2.78, -8.54, 2.02, 1.58, 7.10, repro,
2006-11-23,-2.79, 0.81, -39.65, 2.13, 1.73, 7.75, repro,
2006-11-24,0.14, -0.22, -14.37, 2.13, 1.68, 7.66, repro,
2006-11-25,1.47, -2.00, -13.54, 2.07, 1.62, 7.31, repro,
2006-11-26,-0.11, 0.58, -11.36, 2.06, 1.61, 7.25, repro,
2006-11-27,-3.31, 2.22, 0.07, 2.05, 1.60, 7.19, repro,
2006-11-28,0.44, 0.34, -14.29, 2.03, 1.59, 7.18, repro,
2006-11-29,0.36, -1.43, -7.11, 2.01, 1.60, 7.20, repro,
2006-11-30,1.35, 1.82, -15.68, 2.02, 1.60, 7.22, repro,
2006-12-01,-0.93, 0.77, -16.74, 2.03, 1.59, 7.20, repro,
2006-12-02,-0.59, -0.89, -17.12, 2.02, 1.60, 7.19, repro,
2006-12-03,0.64, 0.39, -17.49, 2.02, 1.59, 7.15, repro,
2006-12-04,0.19, -0.16, -22.73, 2.06, 1.62, 7.31, repro,
2006-12-05,0.06, 0.01, -17.61, 2.06, 1.66, 7.39, repro,
2006-12-06,1.15, -0.50, -12.73, 2.09, 1.72, 7.56, repro,
2006-12-07,1.48, 0.27, -11.48, 2.05, 1.66, 7.33, repro,
2006-12-08,0.13, 1.08, -12.06, 2.06, 1.67, 7.42, repro,
2006-12-09,-0.62, 0.92, -9.38, 2.09, 1.68, 7.46, repro,
2006-12-10,2.88, 0.31, -7.74, 2.09, 1.67, 7.45, repro,
2006-12-11,-1.16, 0.36, -16.36, 2.03, 1.61, 7.22, repro,
2006-12-12,-3.91, 4.16, -12.49, 2.14, 1.73, 7.68, repro,
2006-12-13,-1.02, 2.05, -7.92, 2.03, 1.64, 7.36, repro,
2006-12-14,-0.56, 2.48, -8.97, 2.02, 1.63, 7.28, repro,
2006-12-15,1.03, 0.36, -7.15, 2.14, 1.75, 7.77, repro,
2006-12-16,1.39, -1.63, -10.96, 2.14, 1.74, 7.63, repro,
2006-12-17,0.38, -0.03, -11.10, 2.18, 1.83, 8.18, repro,
2006-12-18,0.32, 1.35, -14.94, 2.24, 1.88, 8.28, repro,
2006-12-19,1.26, 0.24, -13.85, 2.15, 1.86, 8.06, repro,
2006-12-20,0.21, -0.00, -14.95, 2.19, 1.85, 7.94, repro,
2006-12-21,0.33, -0.74, -16.45, 2.02, 1.71, 7.37, repro,
2006-12-22,0.79, 0.06, -23.53, 2.19, 1.90, 8.14, repro,
2006-12-23,-1.89, 1.10, -6.84, 2.11, 1.79, 7.82, repro,
2006-12-24,-0.51, 0.91, -15.89, 2.03, 1.63, 7.26, repro,
2006-12-25,2.19, 1.64, -18.21, 2.08, 1.74, 7.56, repro,
2006-12-26,-0.49, -0.47, -22.13, 2.06, 1.66, 7.38, repro,
2006-12-27,0.88, -5.06, -85.71, 2.10, 1.74, 7.71, repro,
2006-12-28,1.62, -0.18, -17.62, 2.41, 2.12, 9.39, repro,
2006-12-29,1.58, -0.38, -26.05, 2.10, 1.72, 7.67, repro,
2006-12-30,0.86, -0.48, -16.00, 2.08, 1.71, 7.56, repro,
2006-12-31,2.28, -0.60, -17.29, 2.23, 1.86, 8.19, repro,
2007-01-01,0.71, -0.01, -17.05, 2.22, 1.87, 8.10, repro,
2007-01-02,0.13, 0.89, -14.38, 2.20, 1.90, 8.26, repro,
2007-01-03,-1.10, 1.91, -0.70, 2.09, 1.77, 7.75, repro,
2007-01-04,-0.79, 0.62, -23.73, 2.01, 1.65, 7.34, repro,
2007-01-05,2.90, -7.73, -17.28, 2.15, 1.79, 7.86, repro,
2007-01-06,2.21, 0.57, -22.71, 2.03, 1.68, 7.36, repro,
2007-01-07,0.98, -1.43, -17.96, 2.07, 1.65, 7.38, repro,
2007-01-08,0.84, -0.01, -27.67, 2.08, 1.68, 7.57, repro,
2007-01-09,1.27, -0.04, -23.73, 2.06, 1.64, 7.29, repro,
2007-01-10,1.76, 0.65, -14.89, 2.08, 1.63, 7.30, repro,
2007-01-11,0.44, 0.40, -21.23, 2.12, 1.63, 7.38, repro,
2007-01-12,2.27, 2.78, -22.31, 2.03, 1.58, 7.18, repro,
2007-01-13,0.80, 1.82, -24.88, 1.99, 1.57, 7.05, repro,
2007-01-14,1.46, 0.10, -28.28, 1.98, 1.57, 7.06, repro,
2007-01-15,1.84, -0.38, -30.84, 1.98, 1.57, 7.04, repro,
2007-01-16,2.00, -0.87, -27.37, 2.02, 1.57, 7.04, repro,
2007-01-17,1.95, -0.35, -25.11, 2.03, 1.60, 7.17, repro,
2007-01-18,-1.16, -0.40, -28.41, 2.09, 1.68, 7.46, repro,
2007-01-19,1.84, -0.11, -24.62, 2.03, 1.59, 7.25, repro,
2007-01-20,0.16, -1.28, -15.27, 2.09, 1.64, 7.53, repro,
2007-01-21,1.56, -4.85, -20.22, 2.01, 1.58, 7.11, repro,
2007-01-22,2.88, 1.93, -19.94, 2.02, 1.61, 7.18, repro,
2007-01-23,1.68, 0.32, -26.06, 2.00, 1.57, 7.05, repro,
2007-01-24,0.24, 0.02, -24.47, 1.98, 1.57, 7.05, repro,
2007-01-25,0.76, 0.11, -23.84, 2.03, 1.60, 7.10, repro,
2007-01-26,0.51, 0.15, -19.01, 1.99, 1.56, 6.92, repro,
2007-01-27,0.74, 0.33, -22.13, 1.98, 1.56, 6.97, repro,
2007-01-28,2.05, -0.07, -24.57, 1.99, 1.57, 6.97, repro,
2007-01-29,0.79, -0.10, -24.51, 1.99, 1.57, 6.97, repro,
2007-01-30,1.52, -0.40, -17.22, 1.98, 1.56, 6.91, repro,
2007-01-31,-0.90, 0.77, -5.43, 1.98, 1.56, 6.94, repro,
2007-02-01,-3.14, 0.05, -15.81, 2.02, 1.60, 7.12, repro,
2007-02-02,-0.81, 0.75, -14.04, 2.02, 1.58, 7.08, repro,
2007-02-03,-0.44, -0.00, -15.87, 2.02, 1.58, 7.07, repro,
2007-02-04,-0.42, 0.70, -13.78, 1.97, 1.56, 6.88, repro,
2007-02-05,-1.75, 1.42, -16.39, 1.98, 1.56, 6.93, repro,
2007-02-06,-0.91, 1.00, -15.50, 2.02, 1.58, 7.05, repro,
2007-02-07,-0.75, 0.42, -17.14, 1.97, 1.57, 6.93, repro,
2007-02-08,-0.64, 2.20, -26.78, 2.06, 1.63, 7.29, repro,
2007-02-09,-4.07, -0.31, -23.07, 2.02, 1.62, 7.15, repro,
2007-02-10,-1.60, 2.05, -17.22, 1.97, 1.56, 6.89, repro,
2007-02-11,0.48, 1.83, -12.49, 1.99, 1.57, 6.99, repro,
2007-02-12,0.41, 1.06, -20.24, 1.99, 1.57, 6.99, repro,
2007-02-13,-1.22, 0.84, -20.50, 1.98, 1.56, 6.96, repro,
2007-02-14,-0.62, 0.84, -19.59, 1.98, 1.56, 6.88, repro,
2007-02-15,0.46, 1.36, -26.44, 1.98, 1.56, 6.93, repro,
2007-02-16,-3.05, -2.44, -4.46, 1.97, 1.56, 6.95, repro,
2007-02-17,-0.82, 1.70, -18.68, 2.02, 1.62, 7.10, repro,
2007-02-18,0.74, 0.03, -20.53, 1.98, 1.56, 7.01, repro,
2007-02-19,-0.96, -1.83, -14.46, 1.98, 1.56, 6.97, repro,
2007-02-20,-2.64, 0.18, -9.97, 1.99, 1.58, 7.01, repro,
2007-02-21,-1.79, 1.66, -15.82, 1.97, 1.56, 6.94, repro,
2007-02-22,1.32, -0.09, -20.35, 2.04, 1.62, 7.24, repro,
2007-02-23,-0.49, -0.28, -13.83, 2.10, 1.66, 7.50, repro,
2007-02-24,-0.71, 2.37, -16.17, 2.00, 1.58, 7.09, repro,
2007-02-25,-2.92, 2.63, -4.16, 2.00, 1.58, 7.10, repro,
2007-02-26,-1.95, 3.34, -6.68, 1.99, 1.56, 7.01, repro,
2007-02-27,-1.87, 0.74, -16.86, 1.97, 1.56, 6.90, repro,
2007-02-28,-2.46, -1.51, -17.23, 2.00, 1.57, 7.04, repro,
2007-03-01,-0.35, 1.98, -26.64, 2.06, 1.64, 7.28, repro,
2007-03-02,0.04, -0.57, -27.69, 2.07, 1.63, 7.34, repro,
2007-03-03,-0.16, 1.08, -33.89, 2.04, 1.61, 7.21, repro,
2007-03-04,-0.48, 0.88, -18.71, 2.04, 1.62, 7.24, repro,
2007-03-05,-1.02, -0.45, -13.53, 2.07, 1.66, 7.36, repro,
2007-03-06,-1.54, -0.89, -14.06, 2.10, 1.68, 7.48, repro,
2007-03-07,-1.92, 0.23, -8.97, 2.04, 1.61, 7.19, repro,
2007-03-08,-1.64, -0.81, -18.97, 2.05, 1.62, 7.24, repro,
2007-03-09,-1.94, 0.92, -17.18, 2.11, 1.67, 7.51, repro,
2007-03-10,-1.15, -0.30, -25.80, 2.17, 1.70, 7.67, repro,
2007-03-11,-0.80, -1.38, -20.70, 2.04, 1.61, 7.16, repro,
2007-03-12,-0.53, -0.26, -19.67, 2.09, 1.65, 7.35, repro,
2007-03-13,-1.21, 0.69, -19.45, 1.99, 1.56, 7.01, repro,
2007-03-14,-0.16, -0.54, -15.01, 2.12, 1.65, 7.38, repro,
2007-03-15,-0.97, 0.44, -21.18, 2.02, 1.59, 7.09, repro,
2007-03-16,-0.14, 0.04, -17.42, 2.03, 1.58, 7.06, repro,
2007-03-17,-0.90, 0.68, -13.80, 2.00, 1.55, 6.97, repro,
2007-03-18,-1.63, 0.58, -13.64, 2.01, 1.56, 6.97, repro,
2007-03-19,-0.74, 0.23, -15.03, 2.01, 1.56, 6.97, repro,
2007-03-20,-3.13, 1.88, -11.23, 2.08, 1.58, 7.06, repro,
2007-03-21,-1.68, 1.62, -5.18, 2.11, 1.62, 7.26, repro,
2007-03-22,-1.70, -0.31, -14.49, 2.04, 1.60, 7.23, repro,
2007-03-23,-2.39, -1.93, -9.94, 2.04, 1.59, 7.18, repro,
2007-03-24,-1.24, -1.18, -12.58, 2.00, 1.56, 6.96, repro,
2007-03-25,-1.62, 0.91, -9.38, 2.00, 1.54, 6.93, repro,
2007-03-26,-3.77, 0.83, -21.89, 2.00, 1.55, 6.96, repro,
2007-03-27,-1.07, -1.39, -18.78, 2.06, 1.57, 7.09, repro,
2007-03-28,-1.10, -0.85, -19.31, 2.06, 1.57, 7.11, repro,
2007-03-29,-0.81, 0.32, -19.22, 2.01, 1.55, 7.03, repro,
2007-03-30,-0.67, 1.24, -19.84, 2.00, 1.54, 6.90, repro,
2007-03-31,0.29, -0.25, -19.01, 2.01, 1.56, 6.97, repro,
2007-04-01,-0.47, 0.96, -13.95, 2.01, 1.55, 6.96, repro,
2007-04-02,-1.43, 0.22, -16.54, 2.01, 1.55, 6.94, repro,
2007-04-03,-0.37, 0.88, -22.66, 2.04, 1.60, 7.16, repro,
2007-04-04,-0.55, 0.65, -18.97, 2.03, 1.59, 7.07, repro,
2007-04-05,-0.07, 0.66, -20.85, 2.06, 1.62, 7.14, repro,
2007-04-06,0.25, 0.34, -20.22, 2.07, 1.62, 7.28, repro,
2007-04-07,-0.04, -0.21, -14.68, 2.05, 1.59, 7.07, repro,
2007-04-08,-0.47, 0.32, -14.16, 2.03, 1.56, 7.01, repro,
2007-04-09,-0.49, 1.46, -7.19, 2.02, 1.56, 7.01, repro,
2007-04-10,0.10, 0.90, -11.66, 2.06, 1.59, 7.15, repro,
2007-04-11,-0.95, 0.19, -11.27, 2.01, 1.54, 6.93, repro,
2007-04-12,-0.42, -0.28, -16.53, 2.01, 1.54, 6.89, repro,
2007-04-13,-0.82, -0.12, -16.63, 2.01, 1.54, 6.94, repro,
2007-04-14,-3.68, 0.28, -19.91, 2.02, 1.56, 7.00, repro,
2007-04-15,-2.53, 1.78, -16.32, 2.02, 1.56, 7.05, repro,
2007-04-16,0.70, 1.63, -21.72, 2.03, 1.56, 7.04, repro,
2007-04-17,-1.20, 0.16, -21.40, 2.00, 1.55, 6.92, repro,
2007-04-18,-0.65, 0.50, -23.95, 2.02, 1.55, 6.96, repro,
2007-04-19,-0.19, 0.06, -18.93, 2.02, 1.55, 6.99, repro,
2007-04-20,-1.02, -0.50, -15.11, 2.02, 1.56, 7.07, repro,
2007-04-21,-0.55, 0.09, -16.54, 2.03, 1.55, 7.01, repro,
2007-04-22,-2.04, -1.96, -8.95, 2.03, 1.55, 7.04, repro,
2007-04-23,-0.14, 0.28, -13.70, 2.06, 1.57, 7.09, repro,
2007-04-24,0.53, -0.48, -17.17, 2.09, 1.63, 7.31, repro,
2007-04-25,-1.66, 0.11, -16.11, 2.04, 1.57, 7.10, repro,
2007-04-26,-0.94, -0.44, -17.53, 2.02, 1.54, 7.00, repro,
2007-04-27,0.89, 0.30, -18.20, 2.04, 1.55, 7.07, repro,
2007-04-28,0.38, -0.17, -17.52, 2.04, 1.55, 7.07, repro,
2007-04-29,-1.05, -0.11, -13.39, 2.04, 1.56, 7.08, repro,
2007-04-30,-0.93, -0.24, -17.72, 2.03, 1.56, 7.10, repro,
2007-05-01,-0.59, 0.50, -17.03, 2.02, 1.54, 6.95, repro,
2007-05-02,-1.85, 1.69, -16.33, 2.11, 1.57, 7.33, repro,
2007-05-03,-0.18, -0.34, -13.37, 2.11, 1.56, 7.28, repro,
2007-05-04,-0.38, -0.46, -14.24, 2.05, 1.55, 7.13, repro,
2007-05-05,0.70, 0.81, -13.73, 2.07, 1.61, 7.29, repro,
2007-05-06,-5.99, -2.51, -31.77, 2.05, 1.55, 7.05, repro,
2007-05-07,1.82, 0.41, -13.78, 2.05, 1.55, 7.09, repro,
2007-05-08,-0.13, 1.42, -16.53, 2.05, 1.54, 7.10, repro,
2007-05-09,1.22, 1.25, -11.77, 2.09, 1.59, 7.40, repro,
2007-05-10,0.12, 0.35, -12.26, 2.15, 1.63, 7.55, repro,
2007-05-11,-0.26, 1.51, -19.58, 2.13, 1.61, 7.43, repro,
2007-05-12,0.40, 0.80, -14.48, 2.04, 1.54, 7.00, repro,
2007-05-13,-0.03, 0.59, -15.76, 2.10, 1.59, 7.25, repro,
2007-05-14,0.48, 0.46, -17.86, 2.10, 1.57, 7.26, repro,
2007-05-15,0.68, 0.63, -14.08, 2.06, 1.56, 7.15, repro,
2007-05-16,1.12, -0.19, -16.99, 2.04, 1.55, 7.08, repro,
2007-05-17,-0.31, -0.46, -19.76, 2.08, 1.58, 7.18, repro,
2007-05-18,-0.94, 0.23, -18.83, 2.11, 1.62, 7.33, repro,
2007-05-19,0.54, 1.95, -19.22, 2.11, 1.61, 7.32, repro,
2007-05-20,2.32, 1.70, -12.40, 2.13, 1.62, 7.35, repro,
2007-05-21,0.77, 2.68, -8.76, 2.09, 1.58, 7.21, repro,
2007-05-22,-1.40, 0.84, -12.27, 2.08, 1.57, 7.14, repro,
2007-05-23,-1.10, -0.44, -12.50, 2.09, 1.58, 7.16, repro,
2007-05-24,0.51, 0.07, -11.54, 2.18, 1.68, 7.58, repro,
2007-05-25,0.84, 1.34, -14.60, 2.07, 1.56, 7.13, repro,
2007-05-26,2.19, 1.41, -12.70, 2.10, 1.60, 7.28, repro,
2007-05-27,1.76, -1.82, -8.18, 2.11, 1.60, 7.25, repro,
2007-05-28,-0.69, 0.00, -13.47, 2.06, 1.55, 7.03, repro,
2007-05-29,-0.18, -0.11, -12.89, 2.05, 1.55, 7.07, repro,
2007-05-30,0.95, 0.59, -13.70, 2.12, 1.57, 7.23, repro,
2007-05-31,0.42, 1.74, -11.78, 2.11, 1.60, 7.24, repro,
2007-06-01,0.15, 1.64, -17.18, 2.06, 1.55, 7.09, repro,
2007-06-02,0.38, 1.54, -20.87, 2.06, 1.57, 7.12, repro,
2007-06-03,0.19, 1.05, -13.51, 2.06, 1.55, 7.02, repro,
2007-06-04,0.26, 2.71, -10.10, 2.05, 1.55, 7.03, repro,
2007-06-05,0.62, 0.75, -11.06, 2.11, 1.57, 7.25, repro,
2007-06-06,-1.28, 1.97, -11.08, 2.04, 1.56, 7.09, repro,
2007-06-07,1.77, 1.71, -6.65, 2.05, 1.56, 7.09, repro,
2007-06-08,1.00, 1.38, -12.88, 2.06, 1.57, 7.10, repro,
2007-06-09,0.39, 0.11, -19.21, 2.07, 1.59, 7.18, repro,
2007-06-10,0.16, 1.52, -18.87, 2.06, 1.55, 7.07, repro,
2007-06-11,0.63, 0.89, -12.39, 2.07, 1.60, 7.25, repro,
2007-06-12,0.86, 0.75, -15.88, 2.09, 1.66, 7.34, repro,
2007-06-13,1.97, 0.11, -14.27, 2.10, 1.60, 7.24, repro,
2007-06-14,1.77, -0.18, -16.10, 2.11, 1.62, 7.26, repro,
2007-06-15,1.12, 2.80, -13.69, 2.04, 1.55, 7.05, repro,
2007-06-16,2.99, 0.80, -13.05, 2.05, 1.56, 7.05, repro,
2007-06-17,0.61, 1.63, -16.20, 2.08, 1.62, 7.22, repro,
2007-06-18,2.13, 0.81, -8.55, 2.05, 1.56, 7.07, repro,
2007-06-19,0.34, 0.27, -16.90, 2.06, 1.56, 7.08, repro,
2007-06-20,0.51, 0.94, -15.26, 2.05, 1.55, 7.04, repro,
2007-06-21,0.40, 1.48, -10.79, 2.05, 1.56, 7.10, repro,
2007-06-22,1.22, 1.78, -12.00, 2.05, 1.56, 7.09, repro,
2007-06-23,1.33, 2.76, -17.73, 2.05, 1.55, 7.04, repro,
2007-06-24,0.86, 0.93, -19.15, 2.08, 1.62, 7.35, repro,
2007-06-25,1.83, 1.97, -15.17, 2.05, 1.55, 7.08, repro,
2007-06-26,1.34, 0.94, -15.06, 2.05, 1.56, 7.08, repro,
2007-06-27,1.14, 0.93, -11.86, 2.05, 1.56, 7.09, repro,
2007-06-28,4.09, 3.37, -13.58, 2.06, 1.56, 7.14, repro,
2007-06-29,2.63, 0.98, -17.38, 2.04, 1.55, 7.02, repro,
2007-06-30,0.60, 3.43, -16.11, 2.03, 1.55, 7.05, repro,
2007-07-01,0.92, 1.26, -8.75, 2.05, 1.55, 7.06, repro,
2007-07-02,1.03, 1.55, -12.68, 2.05, 1.55, 7.06, repro,
2007-07-03,1.28, 2.04, -14.23, 2.04, 1.56, 7.08, repro,
2007-07-04,2.79, 4.21, -10.41, 2.04, 1.55, 7.04, repro,
2007-07-05,1.34, 1.26, -16.52, 2.04, 1.56, 7.03, repro,
2007-07-06,4.23, 2.01, -17.05, 2.05, 1.57, 7.16, repro,
2007-07-07,0.84, 0.42, -11.16, 2.07, 1.57, 7.15, repro,
2007-07-08,0.65, 2.44, -8.80, 2.03, 1.55, 7.02, repro,
2007-07-09,0.95, 2.81, -9.77, 2.05, 1.55, 7.02, repro,
2007-07-10,1.28, 1.08, -14.73, 2.04, 1.55, 7.01, repro,
2007-07-11,1.84, 2.30, -14.15, 2.04, 1.55, 7.00, repro,
2007-07-12,2.89, 2.52, -7.91, 2.06, 1.56, 7.11, repro,
2007-07-13,-0.72, 1.86, -4.52, 2.09, 1.62, 7.27, repro,
2007-07-14,1.05, 1.40, -10.12, 2.07, 1.60, 7.18, repro,
2007-07-15,0.02, 3.18, -14.63, 2.13, 1.70, 7.50, repro,
2007-07-16,3.47, 1.86, -5.47, 2.06, 1.61, 7.20, repro,
2007-07-17,3.08, 2.48, -2.66, 2.04, 1.55, 7.03, repro,
2007-07-18,-1.48, 2.44, 0.51, 2.07, 1.61, 7.30, repro,
2007-07-19,-0.47, 1.77, -0.04, 2.06, 1.56, 7.11, repro,
2007-07-20,1.41, 1.94, -13.70, 2.04, 1.55, 7.02, repro,
2007-07-21,-0.05, 1.20, -11.83, 2.09, 1.62, 7.28, repro,
2007-07-22,1.47, 1.70, -12.02, 2.09, 1.61, 7.23, repro,
2007-07-23,2.19, 1.35, -9.44, 2.10, 1.65, 7.37, repro,
2007-07-24,0.98, 2.44, -5.89, 2.10, 1.62, 7.37, repro,
2007-07-25,0.76, 0.30, -1.95, 2.05, 1.55, 7.07, repro,
2007-07-26,0.71, 0.01, -8.50, 2.05, 1.56, 7.08, repro,
2007-07-27,1.23, 0.95, -9.54, 2.08, 1.61, 7.23, repro,
2007-07-28,0.78, 0.40, -4.16, 2.08, 1.61, 7.22, repro,
2007-07-29,0.73, -0.10, -6.71, 2.08, 1.61, 7.23, repro,
2007-07-30,1.42, 0.17, -9.32, 2.08, 1.61, 7.24, repro,
2007-07-31,-0.53, 1.72, -9.33, 2.05, 1.56, 7.10, repro,
2007-08-01,1.91, -0.02, -4.79, 2.05, 1.55, 7.03, repro,
2007-08-02,1.28, -0.60, -2.39, 2.04, 1.55, 6.99, repro,
2007-08-03,1.40, 0.09, -6.28, 2.04, 1.54, 6.98, repro,
2007-08-04,1.61, -0.16, -3.95, 2.03, 1.54, 6.95, repro,
2007-08-05,1.20, -0.54, 1.10, 2.05, 1.54, 6.99, repro,
2007-08-06,0.76, -0.83, 0.31, 2.08, 1.59, 7.21, repro,
2007-08-07,1.26, -0.49, -2.36, 2.07, 1.59, 7.17, repro,
2007-08-08,0.67, -0.26, -7.75, 2.03, 1.54, 6.96, repro,
2007-08-09,1.23, -0.78, -3.66, 2.02, 1.53, 6.90, repro,
2007-08-10,1.12, -0.30, -1.12, 2.02, 1.53, 6.91, repro,
2007-08-11,0.33, 0.28, -4.45, 2.04, 1.55, 7.06, repro,
2007-08-12,-1.38, -0.54, -4.03, 2.05, 1.54, 7.04, repro,
2007-08-13,0.99, -0.73, -4.75, 2.03, 1.54, 6.97, repro,
2007-08-14,1.04, -0.23, -5.76, 2.14, 1.66, 7.30, repro,
2007-08-15,0.82, -0.32, -5.83, 2.14, 1.65, 7.28, repro,
2007-08-16,1.51, -0.19, 2.33, 2.11, 1.61, 7.23, repro,
2007-08-17,0.63, -1.84, -6.78, 2.14, 1.62, 7.33, repro,
2007-08-18,0.17, 1.03, -2.01, 2.18, 1.65, 7.58, repro,
2007-08-19,0.68, 0.19, 3.69, 2.17, 1.64, 7.53, repro,
2007-08-20,0.22, -2.39, -6.70, 2.10, 1.59, 7.19, repro,
2007-08-21,1.32, 1.03, -6.43, 2.14, 1.64, 7.51, repro,
2007-08-22,1.28, -0.10, -1.02, 2.18, 1.67, 7.53, repro,
2007-08-23,1.27, -1.07, 1.65, 2.11, 1.56, 7.18, repro,
2007-08-24,0.82, -0.51, 1.21, 2.22, 1.64, 7.49, repro,
2007-08-25,0.71, -0.15, -5.20, 2.12, 1.61, 7.25, repro,
2007-08-26,1.24, 0.90, -7.99, 2.16, 1.65, 7.41, repro,
2007-08-27,2.07, -1.07, -0.05, 2.17, 1.65, 7.46, repro,
2007-08-28,0.44, 0.53, -3.55, 2.12, 1.62, 7.33, repro,
2007-08-29,2.31, -0.28, -9.07, 2.15, 1.63, 7.40, repro,
2007-08-30,-0.68, 0.58, -3.78, 2.14, 1.62, 7.36, repro,
2007-08-31,-1.85, -0.92, -7.18, 2.22, 1.74, 7.76, repro,
2007-09-01,1.20, -1.10, -10.46, 2.16, 1.63, 7.37, repro,
2007-09-02,1.37, -1.16, -2.16, 2.12, 1.62, 7.29, repro,
2007-09-03,1.94, -0.44, -1.47, 2.13, 1.62, 7.31, repro,
2007-09-04,3.35, -2.33, -6.30, 2.14, 1.62, 7.32, repro,
2007-09-05,0.99, -2.42, -10.53, 2.17, 1.67, 7.52, repro,
2007-09-06,0.74, -1.58, -0.65, 2.15, 1.62, 7.35, repro,
2007-09-07,0.87, -1.47, -0.80, 2.14, 1.61, 7.33, repro,
2007-09-08,1.82, -1.10, -1.69, 2.20, 1.69, 7.63, repro,
2007-09-09,0.48, -2.21, -4.71, 2.22, 1.72, 7.77, repro,
2007-09-10,-0.57, -1.32, -4.68, 2.13, 1.62, 7.32, repro,
2007-09-11,0.48, -0.39, -4.10, 2.15, 1.62, 7.36, repro,
2007-09-12,-0.49, -2.24, 0.26, 2.16, 1.63, 7.37, repro,
2007-09-13,0.52, -0.89, -3.71, 2.23, 1.64, 7.49, repro,
2007-09-14,0.90, -1.73, -2.90, 2.17, 1.67, 7.50, repro,
2007-09-15,-0.84, -0.39, 1.22, 2.23, 1.66, 7.65, repro,
2007-09-16,-1.79, -0.78, 0.68, 2.16, 1.63, 7.39, repro,
2007-09-17,0.78, -2.52, 3.29, 2.25, 1.70, 7.75, repro,
2007-09-18,1.50, -1.14, -5.04, 2.10, 1.61, 7.23, repro,
2007-09-19,0.36, -2.25, -0.13, 2.04, 1.57, 7.07, repro,
2007-09-20,0.98, -2.22, -4.67, 2.06, 1.56, 7.03, repro,
2007-09-21,-0.29, -0.23, 3.43, 2.13, 1.59, 7.30, repro,
2007-09-22,-0.12, -0.86, 3.22, 2.10, 1.56, 7.13, repro,
2007-09-23,-0.34, -0.46, 6.63, 2.14, 1.59, 7.23, repro,
2007-09-24,-0.28, -0.80, 2.00, 2.19, 1.62, 7.43, repro,
2007-09-25,-1.33, -1.05, -7.25, 2.12, 1.59, 7.29, repro,
2007-09-26,-1.14, -0.66, 2.41, 2.10, 1.56, 7.12, repro,
2007-09-27,-0.91, -0.45, -0.34, 2.17, 1.63, 7.43, repro,
2007-09-28,-0.75, 0.45, 4.45, 2.14, 1.64, 7.38, repro,
2007-09-29,0.35, -1.39, 1.91, 2.13, 1.63, 7.31, repro,
2007-09-30,-0.71, -1.45, 2.09, 2.14, 1.65, 7.37, repro,
2007-10-01,0.31, -0.49, 3.62, 2.12, 1.65, 7.31, repro,
2007-10-02,-1.08, -0.22, 2.10, 2.17, 1.71, 7.59, repro,
2007-10-03,-0.39, 0.94, 6.97, 2.17, 1.69, 7.60, repro,
2007-10-04,-1.23, -1.30, 8.18, 2.13, 1.62, 7.38, repro,
2007-10-05,-2.73, -0.10, 10.42, 2.16, 1.70, 7.62, repro,
2007-10-06,-1.29, 1.16, -2.19, 2.15, 1.66, 7.48, repro,
2007-10-07,0.00, -0.31, -7.03, 2.18, 1.68, 7.52, repro,
2007-10-08,-0.65, 0.13, 3.11, 2.39, 1.75, 8.15, repro,
2007-10-09,-1.35, 0.00, 6.06, 2.28, 1.80, 8.00, repro,
2007-10-10,0.34, -0.19, -3.70, 2.28, 1.68, 7.72, repro,
2007-10-11,0.27, 0.57, -5.11, 2.14, 1.65, 7.42, repro,
2007-10-12,0.73, -0.42, 2.71, 2.13, 1.66, 7.42, repro,
2007-10-13,-0.36, -0.20, 1.36, 2.07, 1.59, 7.16, repro,
2007-10-14,0.01, -0.18, -1.63, 2.07, 1.59, 7.17, repro,
2007-10-15,-1.06, 0.22, 4.67, 2.07, 1.59, 7.19, repro,
2007-10-16,-0.42, 0.38, 8.04, 2.08, 1.59, 7.20, repro,
2007-10-17,-1.63, 0.95, 9.18, 2.11, 1.63, 7.43, repro,
2007-10-18,-3.53, 1.33, 13.43, 2.08, 1.60, 7.24, repro,
2007-10-19,-2.25, -0.13, 6.85, 2.06, 1.59, 7.16, repro,
2007-10-20,-1.74, -0.03, 1.76, 2.09, 1.58, 7.22, repro,
2007-10-21,-0.91, 0.05, 3.84, 2.08, 1.59, 7.24, repro,
2007-10-22,-0.31, 0.77, -1.79, 2.08, 1.59, 7.25, repro,
2007-10-23,-0.88, 0.52, -5.39, 2.14, 1.66, 7.46, repro,
2007-10-24,0.08, 0.47, -7.59, 2.18, 1.69, 7.57, repro,
2007-10-25,-0.02, 0.14, -4.61, 2.07, 1.58, 7.14, repro,
2007-10-26,1.03, -1.19, -9.89, 2.10, 1.64, 7.35, repro,
2007-10-27,-0.51, 0.03, -4.85, 2.08, 1.59, 7.23, repro,
2007-10-28,-0.71, -0.02, -5.55, 2.08, 1.61, 7.26, repro,
2007-10-29,-1.36, 1.05, -4.70, 2.06, 1.59, 7.19, repro,
2007-10-30,-2.09, 0.36, -1.14, 2.08, 1.60, 7.23, repro,
2007-10-31,-0.09, 0.06, -6.72, 2.07, 1.59, 7.20, repro,
2007-11-01,-0.58, 1.16, -8.29, 2.05, 1.56, 7.06, repro,
2007-11-02,-0.14, -0.66, -4.69, 2.05, 1.57, 7.09, repro,
2007-11-03,-0.53, 0.25, -4.81, 2.04, 1.57, 7.03, repro,
2007-11-04,-0.26, 0.05, -4.56, 2.03, 1.56, 6.99, repro,
2007-11-05,0.14, 0.21, -7.43, 2.02, 1.55, 6.92, repro,
2007-11-06,1.06, 0.33, -6.93, 2.03, 1.55, 6.99, repro,
2007-11-07,-0.13, -0.56, -5.45, 2.05, 1.56, 7.08, repro,
2007-11-08,0.52, 0.24, -4.90, 2.08, 1.60, 7.14, repro,
2007-11-09,-0.15, -0.71, -7.81, 2.07, 1.59, 7.13, repro,
2007-11-10,-0.57, 0.31, -3.40, 2.07, 1.60, 7.16, repro,
2007-11-11,0.67, -0.18, -3.68, 2.03, 1.55, 7.00, repro,
2007-11-12,0.12, 1.52, 1.52, 2.11, 1.61, 7.28, repro,
2007-11-13,-0.27, 1.73, 3.96, 2.05, 1.56, 7.07, repro,
2007-11-14,-0.21, 0.42, -8.36, 2.08, 1.58, 7.16, repro,
2007-11-15,2.04, 0.12, -5.45, 2.06, 1.57, 7.12, repro,
2007-11-16,-0.96, -0.20, -1.26, 2.03, 1.56, 7.03, repro,
2007-11-17,-2.58, 2.17, 4.50, 2.03, 1.55, 7.00, repro,
2007-11-18,-0.26, 1.61, 8.01, 2.05, 1.57, 7.10, repro,
2007-11-19,1.47, 1.75, -2.01, 2.04, 1.56, 7.07, repro,